This is the latest recevied weather packets stored in our database for station/object PU5BHV. If no packets are shown the sender has not sent any weather packets the latest 10 day(s).
| Time | Temp. | Humidity | Pressure | Rain* | Wind** | Luminosity | Snow |
|---|---|---|---|---|---|---|---|
| 1778101889 | 24.44° C | 92% | 1016.4 hPa | 0 mm | - | 0 W/m² | - |
| 1778101586 | 24.44° C | 92% | 1016.1 hPa | 0 mm | - | 0 W/m² | - |
| 1778101283 | 24.44° C | 92% | 1016.2 hPa | 0 mm | - | 0 W/m² | - |
| 1778100980 | 24.44° C | 91% | 1016.3 hPa | 0 mm | - | 0 W/m² | - |
| 1778100674 | 24.44° C | 91% | 1016.2 hPa | 0 mm | - | 0 W/m² | - |
| 1778100373 | 25° C | 90% | 1016.1 hPa | 0 mm | - | 0 W/m² | - |
| 1778100069 | 25° C | 90% | 1016 hPa | 0 mm | - | 0 W/m² | - |
| 1778099768 | 25° C | 89% | 1016.1 hPa | 0 mm | - | 2 W/m² | - |
| 1778099464 | 25.56° C | 89% | 1016.3 hPa | 0 mm | - | 3 W/m² | - |
| 1778099162 | 25.56° C | 88% | 1015.9 hPa | 0 mm | - | 6 W/m² | - |
| 1778098858 | 25.56° C | 87% | 1015.9 hPa | 0 mm | - | 8 W/m² | - |
| 1778098555 | 25.56° C | 86% | 1015.8 hPa | 0 mm | - | 13 W/m² | - |
| 1778098252 | 26.11° C | 85% | 1015.9 hPa | 0 mm | - | 19 W/m² | - |
| 1778097948 | 26.67° C | 83% | 1016.1 hPa | 0 mm | - | 24 W/m² | - |
| 1778097645 | 26.67° C | 83% | 1016 hPa | 0 mm | - | 28 W/m² | - |
| 1778097342 | 27.22° C | 82% | 1016 hPa | 0 mm | - | 29 W/m² | - |
| 1778097038 | 27.78° C | 80% | 1015.8 hPa | 0 mm | - | 32 W/m² | - |
| 1778096736 | 27.78° C | 78% | 1015.9 hPa | 0 mm | - | 56 W/m² | - |
| 1778096432 | 28.33° C | 79% | 1016 hPa | 0 mm | - | 68 W/m² | - |
| 1778096129 | 28.33° C | 78% | 1015.8 hPa | 0 mm | - | 80 W/m² | - |
| 1778095827 | 28.33° C | 77% | 1015.9 hPa | 0 mm | - | 92 W/m² | - |
| 1778095523 | 28.89° C | 77% | 1015.9 hPa | 0 mm | - | 104 W/m² | - |
| 1778095219 | 28.89° C | 77% | 1016 hPa | 0 mm | - | 119 W/m² | - |
| 1778094916 | 28.89° C | 77% | 1016.1 hPa | 0 mm | - | 148 W/m² | - |
| 1778094612 | 28.33° C | 77% | 1016 hPa | 0 mm | - | 160 W/m² | - |
* Rain latest hour (hover to see other rain measurements)
** Current wind speed in m/s (hover to see current wind gust speed)